sat.trackr.live / text

‹ back to catalog

STARLINK-5529

NORAD 56495 · 2023-064AZ

PAYLOAD ACTIVE UNKNOWN

§ Identity

Operator
Country
US
Launch date
2023-05-10
Launch site
AFWTR
Launch vehicle
Mass (kg)
RCS (m²)

Purposes: comms

External: N2YO · Heavens-Above · Gunter

§ Orbital elements

Epoch: 2026-09-20T11:45:55.068480Z

Period
96.11 min
Inclination
69.9993°
Eccentricity
0.0003241
Mean motion
14.98332989 rev/d
Perigee alt
569.8 km
Apogee alt
574.3 km
Semi-major
6,950.2 km
B*
2.6941e-5
RAAN
333.2199°
Arg perigee
269.5101°
Mean anomaly
90.5686°
Rev number
18,541

§ Raw data

STARLINK-55291 56495U 23064AZ  26263.49022070  .00000228  00000+0  26941-4 0  99942 56495  69.9993 333.2199 0003241 269.5101  90.5686 14.98332989185419

JSON: /api/v1/satellites/56495 · /tle

For live sub-satellite position, see the globe view (requires WebGL).

§ Visibility from observer

Set your observer location to see the next 7 days of passes ≥ 10°. The values pass through the URL so the page stays shareable.

No JS? Fill the form by hand. The geolocation button needs JavaScript.